Location: Newark
(22.3060°N, 114.2134°E)
Time: 01:27:28
(UTC+00:00)

ISS - Visible Passes

Search period start: 07 April 2020 00:00
Search period end: 17 April 2020 00:00
Orbit: 418 x 423 km, 51.6° (Epoch: 07 April)

Date Brightness Start Highest point End Pass type
(mag) Time Alt. Az. Time Alt. Az. Time Alt. Az.
07 Apr -1.5 11:26:02 10° NNE 11:27:35 13° NE 11:28:31 12° ENE visible
07 Apr -0.2 13:01:24 10° WNW 13:01:31 11° WNW 13:01:31 11° WNW visible
08 Apr -3.2 12:14:00 10° NW 12:16:47 57° WNW 12:16:47 57° WNW visible
09 Apr -3.4 11:26:56 10° NNW 11:30:12 47° NE 11:32:09 21° ESE visible
10 Apr -1.2 12:17:31 10° W 12:19:35 15° SW 12:20:38 14° SSW visible
11 Apr -2.1 11:29:29 10° WNW 11:32:30 31° SW 11:35:30 10° S visible
